�N����,����,�~����,�C��,���x,�C��,����,���ϕ���,�ő�u�ԕ���,�ő厞����,���˗�,�I�_���x,�n�����x,�ő啗���N��,DTYPE
"20/08/03","00:10",0.0,25.5,88.1,1007.1,318.0,1.2,2.2,327.3,0.00,23.4,27.1,"00:00:56",1
"20/08/03","00:20",0.0,25.4,88.3,1006.9,309.3,1.1,2.0,331.7,0.00,23.4,26.9,"00:16:32",1
"20/08/03","00:30",0.0,25.3,88.4,1006.7,276.0,1.0,1.6,259.3,0.00,23.3,27.0,"00:24:08",1
"20/08/03","00:40",0.0,25.2,88.4,1006.7,312.6,1.1,1.9,334.6,0.00,23.2,26.8,"00:39:52",1
"20/08/03","00:50",0.0,25.2,88.1,1006.9,334.2,1.6,2.5,343.4,0.00,23.1,26.7,"00:44:00",1
"20/08/03","01:00",0.0,25.1,88.0,1006.7,291.4,0.7,1.6,349.5,0.00,23.0,26.9,"00:50:08",1
"20/08/03","01:10",0.0,24.9,87.8,1006.7,295.3,0.3,0.8,265.7,0.00,22.8,26.7,"01:00:16",1
"20/08/03","01:20",0.0,24.6,87.9,1006.4,256.9,0.5,0.9,273.6,0.00,22.5,26.8,"01:19:44",1
"20/08/03","01:30",0.0,24.4,88.1,1006.7,307.8,0.7,1.4,323.5,0.00,22.3,26.7,"01:24:32",1
"20/08/03","01:40",0.0,24.4,88.4,1006.9,302.5,0.8,1.7,338.7,0.00,22.4,26.6,"01:39:12",1
"20/08/03","01:50",0.0,24.3,88.6,1006.7,318.4,0.7,1.6,315.9,0.00,22.3,26.4,"01:40:16",1
"20/08/03","02:00",0.0,24.1,88.7,1006.9,297.8,0.7,1.2,307.3,0.00,22.2,26.3,"01:56:00",1
"20/08/03","02:10",0.0,24.1,89.0,1006.9,289.1,1.0,1.6,275.7,0.00,22.2,26.3,"02:08:16",1
"20/08/03","02:20",0.0,24.0,89.3,1006.7,314.6,1.1,1.8,338.0,0.00,22.2,26.3,"02:14:08",1
"20/08/03","02:30",0.0,23.9,89.6,1006.7,306.1,1.1,1.9,329.4,0.00,22.1,26.4,"02:27:44",1
"20/08/03","02:40",0.0,23.8,89.8,1006.9,281.1,0.7,1.0,298.7,0.00,22.1,26.2,"02:30:08",1
"20/08/03","02:50",0.0,23.7,89.9,1007.1,279.6,0.6,1.2,275.7,0.00,22.0,26.2,"02:40:16",1
"20/08/03","03:00",0.0,23.7,90.1,1006.9,290.4,0.8,1.8,265.6,0.00,22.0,26.1,"02:53:20",1
"20/08/03","03:10",0.0,23.6,90.3,1006.9,305.4,1.2,1.9,317.1,0.00,22.0,26.2,"03:09:28",1
"20/08/03","03:20",0.0,23.6,90.4,1006.9,297.5,1.0,1.3,327.6,0.00,22.0,26.2,"03:10:16",1
"20/08/03","03:30",0.0,23.5,90.6,1006.9,294.3,1.0,1.6,319.1,0.00,21.9,26.0,"03:23:04",1
"20/08/03","03:40",0.0,23.4,90.7,1006.9,301.0,0.8,1.2,305.6,0.00,21.8,26.1,"03:37:12",1
"20/08/03","03:50",0.0,23.4,90.8,1007.1,293.2,1.0,1.8,307.2,0.00,21.9,26.1,"03:46:48",1
"20/08/03","04:00",0.0,23.4,90.9,1007.1,299.0,1.0,1.3,324.5,0.00,21.9,26.0,"03:54:40",1
"20/08/03","04:10",0.0,23.4,91.1,1007.1,281.8,1.0,1.3,280.6,0.00,21.9,25.8,"04:06:56",1
"20/08/03","04:20",0.0,23.4,91.2,1007.1,294.2,1.0,1.4,311.4,0.00,21.9,25.9,"04:18:32",1
"20/08/03","04:30",0.0,23.4,91.2,1007.1,294.9,0.8,1.3,304.8,0.00,21.9,25.8,"04:23:12",1
"20/08/03","04:40",0.0,23.4,91.3,1007.4,300.4,0.7,1.2,313.2,0.00,21.9,25.9,"04:31:04",1
"20/08/03","04:50",0.0,23.5,91.4,1007.1,315.7,1.2,1.7,308.9,0.00,22.1,25.7,"04:40:40",1
"20/08/03","05:00",0.0,23.4,91.4,1007.4,312.4,1.0,1.3,324.9,0.00,22.0,25.8,"04:51:28",1
"20/08/03","05:10",0.0,23.3,91.5,1007.6,292.5,0.8,1.3,322.1,0.00,21.9,25.7,"05:01:28",1
"20/08/03","05:20",0.0,23.3,91.6,1008.1,304.1,1.0,1.6,328.5,0.00,21.9,25.7,"05:13:12",1
"20/08/03","05:30",0.0,23.3,91.7,1008.1,293.2,0.8,1.2,298.2,0.00,21.9,25.7,"05:23:20",1
"20/08/03","05:40",0.0,23.3,91.8,1008.1,306.3,0.8,1.3,324.9,0.00,21.9,25.7,"05:38:32",1
"20/08/03","05:50",0.0,23.4,91.8,1008.3,316.0,1.0,1.4,321.2,0.00,22.0,25.7,"05:47:28",1
"20/08/03","06:00",0.0,23.6,92.0,1008.1,329.1,0.8,1.1,320.8,0.00,22.3,25.6,"05:55:36",1
"20/08/03","06:10",0.0,23.7,92.1,1007.8,335.3,1.0,1.6,348.5,0.00,22.4,25.6,"06:04:08",1
"20/08/03","06:20",0.0,23.7,92.1,1008.1,286.3,0.7,1.1,312.1,0.00,22.4,25.5,"06:11:52",1
"20/08/03","06:30",0.0,23.9,92.3,1008.1,272.2,0.8,1.1,261.3,0.03,22.6,25.7,"06:23:20",1
"20/08/03","06:40",0.0,24.3,92.2,1008.1,310.6,0.6,1.2,309.2,0.03,23.0,25.6,"06:34:32",1
"20/08/03","06:50",0.0,24.8,92.3,1008.1,311.9,0.7,1.2,335.7,0.04,23.5,25.7,"06:49:04",1
"20/08/03","07:00",0.0,25.4,92.2,1008.1,325.5,0.7,1.2,333.1,0.07,24.1,25.6,"06:50:48",1
"20/08/03","07:10",0.0,26.2,92.1,1008.1,290.9,0.3,0.8,317.0,0.12,24.9,25.8,"07:00:08",1
"20/08/03","07:20",0.0,26.7,90.7,1008.1,268.0,0.2,0.9,225.9,0.18,25.1,25.7,"07:17:36",1
"20/08/03","07:30",0.0,27.3,90.5,1007.8,174.3,0.3,0.9,209.0,0.18,25.6,25.9,"07:28:24",1
"20/08/03","07:40",0.0,26.9,87.9,1007.6,190.2,0.2,0.8,219.6,0.09,24.8,25.8,"07:37:36",1
"20/08/03","07:50",0.0,27.6,87.6,1007.6,200.4,0.1,0.5,198.7,0.10,25.4,26.1,"07:43:28",1
"20/08/03","08:00",0.0,28.3,85.7,1007.6,146.6,0.3,1.4,122.2,0.22,25.7,26.2,"07:59:04",1
"20/08/03","08:10",0.0,28.9,82.2,1007.8,207.9,0.6,1.3,188.9,0.28,25.6,26.2,"08:04:56",1
"20/08/03","08:20",0.0,29.7,78.6,1009.0,194.0,0.7,1.9,229.9,0.32,25.6,26.3,"08:14:00",1
"20/08/03","08:30",0.0,30.2,76.3,1009.0,164.2,0.6,1.6,189.3,0.30,25.6,26.6,"08:21:36",1
"20/08/03","08:40",0.0,30.4,73.7,1009.5,128.0,0.7,1.9,141.0,0.29,25.2,26.4,"08:33:04",1
"20/08/03","08:50",0.0,30.5,72.4,1009.3,9.9,0.7,1.8,340.7,0.23,25.0,26.6,"08:46:56",1
"20/08/03","09:00",0.0,29.7,73.3,1008.8,329.5,1.0,2.0,336.9,0.11,24.4,26.6,"08:51:04",1
"20/08/03","09:10",0.0,29.2,74.3,1008.1,33.5,0.8,1.4,18.1,0.13,24.2,26.7,"09:00:40",1
"20/08/03","09:20",0.0,29.6,74.2,1008.3,11.4,0.6,1.4,350.1,0.14,24.6,26.9,"09:19:36",1
"20/08/03","09:30",0.0,29.6,74.5,1008.1,357.1,0.8,1.8,6.2,0.11,24.6,26.8,"09:21:52",1
"20/08/03","09:40",0.0,29.8,74.6,1008.1,351.8,0.5,1.2,1.8,0.15,24.8,27.1,"09:39:12",1
"20/08/03","09:50",0.0,29.8,73.5,1008.1,347.9,0.8,1.7,352.5,0.13,24.6,27.1,"09:46:40",1
"20/08/03","10:00",0.0,29.9,73.3,1008.1,352.3,0.7,1.8,344.5,0.17,24.6,27.1,"09:57:36",1
"20/08/03","10:10",0.0,30.1,72.8,1008.1,257.5,0.6,1.2,329.4,0.21,24.7,27.6,"10:04:08",1
"20/08/03","10:20",0.0,30.8,71.7,1008.3,247.4,0.5,1.7,355.0,0.27,25.1,27.3,"10:19:52",1
"20/08/03","10:30",0.0,31.8,69.3,1008.6,2.1,0.7,1.9,349.9,0.52,25.5,27.4,"10:23:52",1
"20/08/03","10:40",0.0,32.2,65.6,1009.5,71.4,1.0,2.6,191.1,0.43,25.0,27.7,"10:37:04",1
"20/08/03","10:50",0.0,31.8,66.9,1009.3,30.6,1.1,2.4,21.2,0.30,24.9,27.8,"10:44:24",1
"20/08/03","11:00",0.0,31.6,67.9,1008.8,22.8,1.0,2.1,28.3,0.25,25.0,27.6,"10:51:28",1
"20/08/03","11:10",0.0,31.3,68.2,1008.6,332.0,0.8,2.1,342.1,0.23,24.8,27.8,"11:01:20",1
"20/08/03","11:20",0.0,31.8,67.8,1008.6,336.9,0.5,1.8,348.5,0.30,25.2,28.0,"11:19:04",1
"20/08/03","11:30",0.0,32.1,67.0,1008.6,242.6,0.8,2.1,217.0,0.31,25.2,27.8,"11:22:48",1
"20/08/03","11:40",0.0,32.3,66.6,1008.8,197.5,1.3,3.7,213.7,0.42,25.3,28.2,"11:39:12",1
"20/08/03","11:50",0.0,32.9,65.0,1008.8,178.2,1.5,3.4,215.8,0.64,25.5,28.3,"11:48:00",1
"20/08/03","12:00",0.0,33.4,62.4,1009.0,185.7,1.0,3.6,219.5,0.54,25.3,28.6,"11:56:16",1
"20/08/03","12:10",0.0,33.8,63.3,1009.3,181.6,1.1,2.6,221.9,0.57,25.9,28.7,"12:01:20",1
"20/08/03","12:20",0.0,32.8,63.2,1009.0,20.5,1.1,2.5,57.9,0.27,24.9,28.8,"12:11:36",1
"20/08/03","12:30",0.0,32.7,63.8,1008.6,330.9,1.3,2.7,340.3,0.48,25.0,29.1,"12:24:08",1
"20/08/03","12:40",0.0,33.5,60.7,1008.8,267.0,0.7,2.4,222.9,0.51,24.9,29.0,"12:35:12",1
"20/08/03","12:50",0.0,33.7,61.4,1008.6,193.3,0.7,3.1,227.3,0.40,25.3,29.3,"12:45:28",1
"20/08/03","13:00",0.0,33.5,61.6,1008.6,186.1,1.1,2.7,196.8,0.45,25.1,29.4,"12:57:12",1
"20/08/03","13:10",0.0,34.1,59.7,1009.0,224.5,1.1,3.1,230.6,0.55,25.2,29.5,"13:02:32",1
"20/08/03","13:20",0.0,33.9,58.6,1008.6,327.5,1.2,3.4,191.8,0.47,24.7,29.5,"13:13:20",1
"20/08/03","13:30",0.0,34.4,58.4,1009.0,26.0,0.8,2.1,109.5,0.40,25.1,29.4,"13:27:28",1
"20/08/03","13:40",0.0,33.9,59.2,1008.3,290.3,0.5,1.6,338.5,0.22,24.9,29.7,"13:31:28",1
"20/08/03","13:50",0.0,33.8,60.3,1008.3,345.1,1.1,3.4,0.6,0.33,25.1,29.7,"13:43:04",1
"20/08/03","14:00",0.0,34.0,60.0,1008.6,241.2,0.8,2.2,217.1,0.37,25.2,29.7,"13:52:40",1
"20/08/03","14:10",0.0,33.8,60.4,1008.3,253.3,1.1,2.4,217.6,0.31,25.1,29.6,"14:00:24",1
"20/08/03","14:20",0.0,33.6,58.9,1007.8,203.0,1.0,3.1,223.8,0.25,24.5,29.7,"14:10:02",1
"20/08/03","14:30",0.0,33.4,59.3,1007.4,235.8,1.3,3.1,210.8,0.22,24.4,29.8,"14:29:36",1
"20/08/03","14:40",0.0,34.2,60.6,1007.6,200.8,1.7,4.1,201.8,0.44,25.5,29.8,"14:36:00",1
"20/08/03","14:50",0.0,34.0,58.4,1007.6,228.2,1.7,4.0,224.8,0.40,24.7,29.8,"14:40:32",1
"20/08/03","15:00",0.0,33.7,59.4,1007.6,180.8,1.5,2.6,229.5,0.26,24.7,29.7,"14:53:04",1
"20/08/03","15:10",0.0,33.3,59.9,1007.4,160.3,1.3,3.3,123.4,0.21,24.5,29.7,"15:02:48",1
"20/08/03","15:20",0.0,33.2,60.4,1007.4,170.5,1.2,2.7,153.0,0.19,24.5,30.0,"15:12:08",1
"20/08/03","15:30",0.0,33.5,58.0,1007.1,242.8,1.5,3.1,222.5,0.27,24.1,29.8,"15:28:24",1
"20/08/03","15:40",0.0,33.8,59.7,1006.9,217.6,1.1,2.8,216.6,0.23,24.9,29.6,"15:33:52",1
"20/08/03","15:50",0.0,33.3,59.8,1007.4,198.3,2.0,3.3,217.5,0.26,24.5,29.7,"15:40:40",1
"20/08/03","16:00",0.0,33.1,58.3,1007.1,210.3,1.3,4.0,214.9,0.19,23.9,29.8,"15:59:04",1
"20/08/03","16:10",0.0,32.7,58.7,1006.9,217.5,2.1,3.9,223.9,0.15,23.6,29.7,"16:06:16",1
"20/08/03","16:20",0.0,32.6,60.8,1006.7,208.9,1.7,4.0,225.2,0.11,24.1,29.6,"16:12:24",1
"20/08/03","16:30",0.0,32.6,60.9,1006.7,212.9,1.3,2.9,217.1,0.12,24.1,29.4,"16:26:08",1
"20/08/03","16:40",0.0,32.5,61.4,1006.4,204.8,1.3,2.8,224.7,0.13,24.2,29.5,"16:33:44",1
"20/08/03","16:50",0.0,32.4,61.4,1006.4,255.1,1.1,2.4,227.2,0.10,24.1,29.4,"16:47:20",1
"20/08/03","17:00",0.0,32.4,61.9,1006.4,269.2,0.8,2.5,239.6,0.10,24.2,29.4,"16:50:16",1
"20/08/03","17:10",0.0,32.5,62.1,1006.2,239.8,1.1,2.5,250.0,0.12,24.3,29.5,"17:03:04",1
"20/08/03","17:20",0.0,32.4,62.5,1006.4,247.5,1.0,2.8,269.3,0.09,24.4,29.3,"17:17:04",1
"20/08/03","17:30",0.0,31.9,64.1,1006.2,230.5,1.3,2.5,216.3,0.05,24.3,29.3,"17:22:56",1
"20/08/03","17:40",0.0,31.7,65.2,1006.4,235.9,1.0,2.8,184.7,0.03,24.4,29.4,"17:30:48",1
"20/08/03","17:50",0.0,31.3,66.4,1006.2,229.1,0.7,2.4,223.8,0.01,24.3,29.1,"17:40:48",1
"20/08/03","18:00",0.0,30.9,67.0,1006.2,241.5,0.6,2.4,223.3,0.01,24.1,29.0,"17:58:48",1
"20/08/03","18:10",0.0,30.5,66.7,1006.0,239.1,0.5,2.4,219.5,0.00,23.6,29.1,"18:09:20",1
"20/08/03","18:20",0.0,30.0,66.6,1006.0,231.4,0.6,1.8,326.6,0.00,23.1,29.0,"18:13:28",1
"20/08/03","18:30",0.0,29.7,67.6,1005.5,11.9,0.6,2.2,345.7,0.00,23.1,28.8,"18:28:32",1
"20/08/03","18:40",0.0,29.2,70.0,1005.2,344.8,0.8,1.7,347.4,0.00,23.2,28.8,"18:32:08",1
"20/08/03","18:50",0.0,28.6,72.0,1005.0,327.3,0.8,1.6,336.6,0.00,23.1,28.7,"18:45:44",1
"20/08/03","19:00",0.0,28.0,73.1,1005.2,295.8,1.1,2.1,343.7,0.00,22.8,28.6,"18:55:36",1
"20/08/03","19:10",0.0,27.9,73.0,1005.7,304.9,0.8,1.8,323.4,0.00,22.7,28.4,"19:06:20",1
"20/08/03","19:20",0.0,27.9,72.0,1006.0,298.9,1.0,2.8,346.3,0.00,22.4,28.3,"19:14:16",1
"20/08/03","19:30",0.0,27.8,73.1,1006.0,306.4,0.8,1.3,329.2,0.00,22.6,28.3,"19:27:36",1
"20/08/03","19:40",0.0,27.3,74.9,1006.2,291.8,0.8,1.2,334.5,0.00,22.5,28.3,"19:31:36",1
"20/08/03","19:50",0.0,27.0,76.3,1006.2,319.1,1.0,1.9,330.1,0.00,22.5,27.8,"19:49:36",1
"20/08/03","20:00",0.0,26.8,77.0,1006.7,342.9,1.7,3.2,348.4,0.00,22.5,28.1,"19:58:00",1
"20/08/03","20:10",0.0,26.7,77.6,1006.9,325.0,0.8,2.1,341.9,0.00,22.5,28.0,"20:01:28",1
"20/08/03","20:20",0.0,26.6,78.7,1007.1,343.8,1.5,2.5,344.7,0.00,22.6,27.9,"20:17:52",1
"20/08/03","20:30",0.0,26.4,79.4,1006.9,305.9,0.8,1.4,325.7,0.00,22.6,27.8,"20:23:52",1
"20/08/03","20:40",0.0,26.3,80.1,1007.4,305.1,1.1,1.4,321.0,0.00,22.6,27.8,"20:34:16",1
"20/08/03","20:50",0.0,25.8,81.1,1007.4,323.9,0.8,1.2,327.8,0.00,22.4,27.5,"20:41:20",1
"20/08/03","21:00",0.0,25.5,81.7,1007.4,279.9,0.5,1.0,248.0,0.00,22.2,27.5,"20:55:52",1
"20/08/03","21:10",0.0,25.3,82.3,1007.4,283.6,0.5,0.9,328.2,0.00,22.1,27.3,"21:01:36",1
"20/08/03","21:20",0.0,25.2,83.2,1007.6,313.0,0.8,1.2,327.9,0.00,22.2,27.4,"21:18:00",1
"20/08/03","21:30",0.0,25.0,83.9,1007.6,303.9,0.8,1.6,304.7,0.00,22.1,27.2,"21:25:04",1
"20/08/03","21:40",0.0,25.0,84.6,1007.6,307.8,0.8,2.2,340.6,0.00,22.3,27.3,"21:34:16",1
"20/08/03","21:50",0.0,24.8,85.2,1007.8,301.1,0.7,1.3,307.9,0.00,22.2,27.2,"21:44:56",1
"20/08/03","22:00",0.0,24.8,85.6,1007.8,275.7,0.7,1.2,260.9,0.00,22.3,27.1,"21:57:28",1
"20/08/03","22:10",0.0,24.8,86.0,1007.8,285.3,0.7,1.3,258.7,0.00,22.3,27.0,"22:03:52",1
"20/08/03","22:20",0.0,24.8,86.3,1007.8,305.1,1.0,1.9,316.3,0.00,22.4,26.9,"22:17:28",1
"20/08/03","22:30",0.0,24.6,86.6,1007.8,294.5,0.6,1.0,279.7,0.00,22.3,26.8,"22:29:28",1
"20/08/03","22:40",0.0,24.6,86.8,1007.6,300.6,0.8,1.8,335.8,0.00,22.3,27.0,"22:36:56",1
"20/08/03","22:50",0.0,24.6,87.2,1007.8,312.7,1.2,3.1,347.8,0.00,22.4,26.6,"22:48:48",1
"20/08/03","23:00",0.0,24.6,87.4,1007.6,333.0,1.3,2.4,340.6,0.00,22.4,26.8,"22:51:12",1
"20/08/03","23:10",0.0,24.6,87.6,1007.8,335.8,1.1,2.1,344.5,0.00,22.4,26.6,"23:05:44",1
"20/08/03","23:20",0.0,24.4,87.8,1007.8,291.0,0.8,1.6,340.2,0.00,22.3,26.6,"23:10:24",1
"20/08/03","23:30",0.0,24.4,88.0,1007.8,270.1,0.7,1.3,264.4,0.00,22.3,26.6,"23:24:32",1
"20/08/03","23:40",0.0,24.3,88.1,1007.8,291.0,0.6,1.0,270.7,0.00,22.2,26.3,"23:34:48",1
"20/08/03","23:50",0.0,24.1,88.2,1007.8,313.8,0.8,1.6,330.9,0.00,22.1,26.4,"23:46:00",1
"20/08/03","24:00",0.0,23.8,88.4,1007.6,318.4,1.0,1.3,321.2,0.00,21.8,26.3,"23:51:28",1
